Regional Weather Roundup
Issued by NWS

Home | Current Version | Previous Version | Graphics & Text | Print | Product List | Glossary On
Versions: 1 2 3 4 5 6 7 8 9 10 11 12 13 14 15 16 17 18 19 20 21 22 23 24 25 26 27 28 29 30 31 32 33 34 35 36 37 38 39 40 41 42 43 44 45 46 47 48 49 50
000
ASUS43 KLSX 222357
RWRMO

WEATHER SUMMARY FOR MISSOURI
NATIONAL WEATHER SERVICE SPRINGFIELD MO
700 PM CDT SAT JUL 22 2017

NOTE: "FAIR" INDICATES FEW OR NO CLOUDS BELOW 12,000 FEET WITH NO
       SIGNIFICANT WEATHER AND/OR OBSTRUCTIONS TO VISIBILITY.
       CURRENT SKY AND/OR WEATHER CONDITIONS ARE NOT AVAILABLE FOR
       CHILLICOTHE AND FARMINGTON.

MOZ001>031-035>038-043-044-053-054-230100-
...NORTHERN AND WESTERN MISSOURI...

CITY           SKY/WX    TMP DP  RH WIND       PRES   REMARKS
KANSAS CTY INT MOSUNNY   91  79  67 N7        29.80R HX 107
6HR MIN TEMP:  91; 6HR MAX TEMP:  98;

LEE`S SUMMIT   SUNNY     98  76  49 CALM      29.79F HX 112
6HR MIN TEMP:  94; 6HR MAX TEMP:  99;

ST JOSEPH      MOSUNNY   87  81  82 N7        29.81R HX 104
6HR MIN TEMP:  87; 6HR MAX TEMP:  96;

CHILLICOTHE      N/A     93  82  70 N3        29.81R HX 116
6HR MIN TEMP:  92; 6HR MAX TEMP:  97;


$$
MOZ066>068-077>081-088>096-101>105-230100-
...SOUTHWEST MISSOURI...

CITY           SKY/WX    TMP DP  RH WIND       PRES   REMARKS
SPRINGFIELD    SUNNY     94  73  50 S12       29.85F HX 103
6HR MIN TEMP:  94; 6HR MAX TEMP:  98;

JOPLIN         SUNNY     97  73  45 SW14      29.83F HX 107
6HR MIN TEMP:  97; 6HR MAX TEMP: 101;

BRANSON        MOSUNNY   93  72  49 SW5       29.90F HX 100

$$
MOZ032>034-039>042-045>050-055>058-069>072-230100-
...CENTRAL MISSOURI...

CITY           SKY/WX    TMP DP  RH WIND       PRES   REMARKS
COLUMBIA       NOT AVBL
JEFFERSON CITY SUNNY     97  79  56 NW6       29.75F HX 115
6HR MIN TEMP:  95; 6HR MAX TEMP: 101;

ROLLA          SUNNY     94  75  54 SW5       29.81S HX 105
6HR MIN TEMP:  93; 6HR MAX TEMP:  98;

SEDALIA        SUNNY     95  79  59 SW10      29.80F HX 112
6HR MIN TEMP:  94; 6HR MAX TEMP:  98;

WARRENSBURG    SUNNY     95  73  49 S7        29.78F HX 105

$$
MOZ051-052-059>065-230100-
...EAST CENTRAL MISSOURI...

CITY           SKY/WX    TMP DP  RH WIND       PRES   REMARKS
ST LOUIS INTL  MOSUNNY  103  70  34 W13       29.76S HX 111
6HR MIN TEMP:  95; 6HR MAX TEMP: 108;


$$
MOZ072>076-082>087-097>100-106>115-230100-
...SOUTH CENTRAL AND SOUTHEAST MISSOURI...

CITY           SKY/WX    TMP DP  RH WIND       PRES   REMARKS
CAPE GIRARDEAU SUNNY     90  73  57 SW12      29.82F HX  98
6HR MIN TEMP:  90; 6HR MAX TEMP:  94;

FARMINGTON     MOSUNNY   93  72  49 S14       29.83R HX 100
POPLAR BLUFF   SUNNY     91  79  67 S6        29.84F HX 107
6HR MIN TEMP:  91; 6HR MAX TEMP:  94;

WEST PLAINS    SUNNY     93  66  40 S8        29.90F HX  96
6HR MIN TEMP:  93; 6HR MAX TEMP:  96;


$$



USA.gov is the U.S. government's official web portal to all federal, state and local government web resources and services.